User: anonymous   Login
Location: Krasnoyarskiy Pitomnik
(51.1333°N, 71.6167°E)
Time: 02:49:51
(UTC+00:00)
Language:

Vanguard 3 - Orbit

View from above orbital plane
View from above orbital plane
View from above satellite
View from above satellite

Ground track
Ground track

The orbit data is extracted from the following two-line orbital elements,

1    20U 59007A   24112.67738786  .00005826  00000-0  23884-2 0  9993
2    20  33.3411 212.3868 1651504 166.3047 198.8566 11.58457801393242
Epoch (UTC): 21 April 2024 16:15:26
Eccentricity: 0.1651504
inclination: 33.3411°
perigee height: 510 km
apogee height: 3235 km
right ascension of ascending node: 212.3868°
argument of perigee: 166.3047°
revolutions per day: 11.58457801
mean anomaly at epoch: 198.8566°
orbit number at epoch: 39324

The dashed part of the orbit path shows where the satellite is in the earth's shadow,  

DLR